Location: B?lite?ti
(46.2833°N, 22.7333°E)
Time: 17:27:05
(UTC+00:00)

CZ-4C R/B - Pass Details

Date: 24 January 2021
Orbit: 617 x 1385 km, 63.4° (Epoch: 28 February)

Event Time Altitude Azimuth Distance (km) Brightness Sun altitude
Rises 15:46:46 0° 265° (W) 3,160 6.9 -4.7°
Reaches altitude 10° 15:49:22 10° 279° (W) 2,341 5.6 -5.1°
Maximum altitude 15:53:50 25° 335° (NNW) 1,687 3.8 -5.8°
Drops below altitude 10° 15:59:02 10° 29° (NNE) 2,766 4.4 -6.7°
Enters shadow 16:01:22 - 39° (NE) 3,517 4.9 -7.0°
